Time,TemperatureF,DewpointF,PressureIn,WindDirection,WindDirectionDegrees,WindSpeedMPH,WindSpeedGustMPH,Humidity,HourlyPrecipIn,Conditions,Clouds,dailyrainin,SoftwareType,DateUTC
2013-01-30 00:01:00,68.5,55.0,30.00,South,180,3.6,7.2,62,0.00,,---,0.00,VWS V14.01,2013-01-30 05:01:00,
2013-01-30 00:02:00,68.5,55.0,30.00,SSE,168,3.6,4.9,62,0.00,,---,0.00,VWS V14.01,2013-01-30 05:02:00,
2013-01-30 00:04:00,68.5,55.0,30.00,SSE,159,2.7,2.7,62,0.00,,---,0.00,VWS V14.01,2013-01-30 05:04:00,
2013-01-30 00:09:00,68.5,54.5,30.00,South,185,3.6,3.6,61,0.00,,---,0.00,VWS V14.01,2013-01-30 05:09:00,
2013-01-30 00:14:00,68.4,54.8,30.00,SSE,164,2.7,4.0,62,0.00,,---,0.00,VWS V14.01,2013-01-30 05:14:00,
2013-01-30 00:19:00,68.2,54.7,30.00,South,177,0.0,0.0,62,0.00,,---,0.00,VWS V14.01,2013-01-30 05:19:00,
2013-01-30 00:24:00,68.2,55.1,30.00,SSE,168,0.0,0.0,63,0.00,,---,0.00,VWS V14.01,2013-01-30 05:24:00,
2013-01-30 00:29:00,68.2,55.6,30.00,South,170,0.0,0.0,64,0.00,,---,0.00,VWS V14.01,2013-01-30 05:29:00,
2013-01-30 00:34:00,68.2,55.6,30.00,SSE,157,3.1,3.1,64,0.00,,---,0.00,VWS V14.01,2013-01-30 05:34:00,
2013-01-30 00:39:00,68.2,55.6,30.00,South,186,0.0,0.0,64,0.00,,---,0.00,VWS V14.01,2013-01-30 05:39:00,
2013-01-30 00:44:00,68.2,55.6,30.00,South,184,3.1,5.8,64,0.00,,---,0.00,VWS V14.01,2013-01-30 05:44:00,
2013-01-30 00:49:00,68.2,55.1,30.00,SSE,165,0.0,0.0,63,0.00,,---,0.00,VWS V14.01,2013-01-30 05:49:00,
2013-01-30 00:54:00,68.2,55.1,30.00,South,173,0.0,0.0,63,0.00,,---,0.00,VWS V14.01,2013-01-30 05:54:00,
2013-01-30 00:59:00,68.0,55.4,30.00,South,183,0.0,0.0,64,0.00,,---,0.00,VWS V14.01,2013-01-30 05:59:00,
2013-01-30 01:04:00,67.8,55.7,30.00,South,170,0.0,2.7,65,0.00,,---,0.00,VWS V14.01,2013-01-30 06:04:00,
2013-01-30 01:09:00,67.6,56.0,30.00,South,169,0.0,0.0,66,0.00,,---,0.00,VWS V14.01,2013-01-30 06:09:00,
2013-01-30 01:14:00,67.6,56.4,30.00,SSE,149,3.6,3.6,67,0.00,,---,0.00,VWS V14.01,2013-01-30 06:14:00,
2013-01-30 01:19:00,67.6,56.8,30.00,SSE,162,4.0,4.0,68,0.00,,---,0.00,VWS V14.01,2013-01-30 06:19:00,
2013-01-30 01:24:00,67.8,57.0,30.00,South,169,2.2,2.7,68,0.00,,---,0.00,VWS V14.01,2013-01-30 06:24:00,
2013-01-30 01:29:00,68.0,56.7,30.00,South,188,0.0,0.0,67,0.00,,---,0.00,VWS V14.01,2013-01-30 06:29:00,
2013-01-30 01:34:00,68.0,56.7,30.00,SSE,166,3.6,3.6,67,0.00,,---,0.00,VWS V14.01,2013-01-30 06:34:00,
2013-01-30 01:39:00,68.0,56.7,30.00,SSE,150,3.6,5.4,67,0.00,,---,0.00,VWS V14.01,2013-01-30 06:39:00,
2013-01-30 01:44:00,68.2,56.5,30.00,South,176,0.0,4.0,66,0.00,,---,0.00,VWS V14.01,2013-01-30 06:44:00,
2013-01-30 01:49:00,68.4,56.2,30.00,SSE,155,5.8,5.8,65,0.00,,---,0.00,VWS V14.01,2013-01-30 06:49:00,
2013-01-30 01:54:00,68.4,55.7,30.00,South,181,3.6,4.0,64,0.00,,---,0.00,VWS V14.01,2013-01-30 06:54:00,
2013-01-30 01:59:00,68.4,55.7,29.97,SSE,153,4.9,4.9,64,0.00,,---,0.00,VWS V14.01,2013-01-30 06:59:00,
2013-01-30 02:04:00,68.4,56.2,29.97,SSW,198,8.3,8.3,65,0.00,,---,0.00,VWS V14.01,2013-01-30 07:04:00,
2013-01-30 02:09:00,68.4,56.2,29.97,SSE,168,2.7,4.0,65,0.00,,---,0.00,VWS V14.01,2013-01-30 07:09:00,
2013-01-30 02:14:00,68.2,56.0,29.97,SSW,203,5.8,5.8,65,0.00,,---,0.00,VWS V14.01,2013-01-30 07:14:00,
2013-01-30 02:19:00,68.2,56.5,29.97,South,179,3.1,5.4,66,0.00,,---,0.00,VWS V14.01,2013-01-30 07:19:00,
2013-01-30 02:24:00,68.2,56.5,29.97,SSE,147,5.8,7.6,66,0.00,,---,0.00,VWS V14.01,2013-01-30 07:24:00,
2013-01-30 02:29:00,68.4,56.6,29.97,South,189,7.2,10.1,66,0.00,,---,0.00,VWS V14.01,2013-01-30 07:29:00,
2013-01-30 02:34:00,68.4,56.6,29.97,SSE,165,5.4,6.3,66,0.00,,---,0.00,VWS V14.01,2013-01-30 07:34:00,
2013-01-30 02:39:00,68.4,57.1,29.97,SSE,165,4.9,7.6,67,0.00,,---,0.00,VWS V14.01,2013-01-30 07:39:00,
2013-01-30 02:44:00,68.4,57.1,29.97,SSW,213,0.0,0.0,67,0.00,,---,0.00,VWS V14.01,2013-01-30 07:44:00,
2013-01-30 02:49:00,68.4,57.5,29.97,SSE,166,3.1,6.3,68,0.00,,---,0.00,VWS V14.01,2013-01-30 07:49:00,
2013-01-30 02:54:00,68.5,57.7,29.97,South,188,5.4,6.3,68,0.00,,---,0.00,VWS V14.01,2013-01-30 07:54:00,
2013-01-30 02:59:00,68.7,57.8,29.97,South,188,6.3,7.6,68,0.00,,---,0.00,VWS V14.01,2013-01-30 07:59:00,
2013-01-30 03:04:00,68.7,57.4,29.97,SSE,160,5.4,8.1,67,0.00,,---,0.00,VWS V14.01,2013-01-30 08:04:00,
2013-01-30 03:09:00,68.9,57.6,29.97,SSW,208,7.2,8.7,67,0.00,,---,0.00,VWS V14.01,2013-01-30 08:09:00,
2013-01-30 03:14:00,68.9,57.6,29.97,SSE,148,6.3,6.3,67,0.00,,---,0.00,VWS V14.01,2013-01-30 08:14:00,
2013-01-30 03:19:00,68.9,57.2,29.97,SSE,156,5.8,8.1,66,0.00,,---,0.00,VWS V14.01,2013-01-30 08:19:00,
2013-01-30 03:24:00,69.1,56.9,29.97,SSW,197,5.4,5.8,65,0.00,,---,0.00,VWS V14.01,2013-01-30 08:24:00,
2013-01-30 03:29:00,69.1,56.9,29.97,SSW,210,8.1,8.1,65,0.00,,---,0.00,VWS V14.01,2013-01-30 08:29:00,
2013-01-30 03:34:00,69.3,57.0,29.97,SSW,213,4.0,4.0,65,0.00,,---,0.00,VWS V14.01,2013-01-30 08:34:00,
2013-01-30 03:39:00,69.3,56.6,29.97,South,184,7.2,7.2,64,0.00,,---,0.00,VWS V14.01,2013-01-30 08:39:00,
2013-01-30 03:44:00,69.3,56.6,29.97,South,169,7.2,7.2,64,0.00,,---,0.00,VWS V14.01,2013-01-30 08:44:00,
2013-01-30 03:49:00,69.3,56.6,29.97,SSW,200,5.4,5.4,64,0.00,,---,0.00,VWS V14.01,2013-01-30 08:49:00,
2013-01-30 03:54:00,69.4,56.8,29.97,SSW,209,9.2,9.2,64,0.00,,---,0.00,VWS V14.01,2013-01-30 08:54:00,
2013-01-30 03:59:00,69.4,56.8,29.94,SSE,158,5.4,10.5,64,0.00,,---,0.00,VWS V14.01,2013-01-30 08:59:00,
2013-01-30 04:04:00,69.3,56.6,29.94,South,175,4.0,10.1,64,0.00,,---,0.00,VWS V14.01,2013-01-30 09:04:00,
2013-01-30 04:09:00,69.3,57.0,29.94,SSE,160,6.3,6.3,65,0.00,,---,0.00,VWS V14.01,2013-01-30 09:09:00,
2013-01-30 04:14:00,69.1,56.9,29.94,South,179,3.6,5.8,65,0.00,,---,0.00,VWS V14.01,2013-01-30 09:14:00,
2013-01-30 04:19:00,69.1,57.3,29.94,SSE,152,8.3,8.3,66,0.00,,---,0.00,VWS V14.01,2013-01-30 09:19:00,
2013-01-30 04:24:00,68.9,57.2,29.94,SSE,151,4.0,6.3,66,0.00,,---,0.00,VWS V14.01,2013-01-30 09:24:00,
2013-01-30 04:29:00,68.9,57.6,29.94,SSE,159,3.1,5.4,67,0.00,,---,0.00,VWS V14.01,2013-01-30 09:29:00,
2013-01-30 04:35:00,68.9,58.0,29.94,South,170,7.6,7.6,68,0.00,,---,0.00,VWS V14.01,2013-01-30 09:35:00,
2013-01-30 04:40:00,68.9,58.0,29.94,SSE,159,8.7,8.7,68,0.00,,---,0.00,VWS V14.01,2013-01-30 09:40:00,
2013-01-30 04:45:00,68.9,58.0,29.94,SSE,167,3.6,7.6,68,0.00,,---,0.00,VWS V14.01,2013-01-30 09:45:00,
2013-01-30 04:50:00,68.7,58.3,29.94,SSW,197,8.3,8.7,69,0.00,,---,0.00,VWS V14.01,2013-01-30 09:50:00,
2013-01-30 04:55:00,68.7,58.3,29.94,South,178,9.6,9.6,69,0.00,,---,0.00,VWS V14.01,2013-01-30 09:55:00,
2013-01-30 05:00:00,68.7,58.3,29.94,SSE,151,7.6,10.1,69,0.00,,---,0.00,VWS V14.01,2013-01-30 10:00:00,
2013-01-30 05:05:00,68.7,58.7,29.94,South,182,3.1,5.4,70,0.00,,---,0.00,VWS V14.01,2013-01-30 10:05:00,
2013-01-30 05:10:00,68.5,58.5,29.94,SSE,154,6.3,6.3,70,0.00,,---,0.00,VWS V14.01,2013-01-30 10:10:00,
2013-01-30 05:15:00,68.5,58.9,29.91,South,184,5.8,8.7,71,0.00,,---,0.00,VWS V14.01,2013-01-30 10:15:00,
2013-01-30 05:20:00,68.4,59.2,29.91,SSE,150,3.6,4.9,72,0.00,,---,0.00,VWS V14.01,2013-01-30 10:20:00,
2013-01-30 05:25:00,68.4,59.2,29.91,South,181,5.4,5.4,72,0.00,,---,0.00,VWS V14.01,2013-01-30 10:25:00,
2013-01-30 05:30:00,68.4,59.6,29.91,South,170,2.7,5.4,74,0.00,,---,0.00,VWS V14.01,2013-01-30 10:30:00,
2013-01-30 05:35:00,68.4,59.6,29.91,South,188,6.3,8.7,74,0.00,,---,0.00,VWS V14.01,2013-01-30 10:35:00,
2013-01-30 05:40:00,68.4,60.0,29.91,SSE,162,3.1,6.3,75,0.00,,---,0.00,VWS V14.01,2013-01-30 10:40:00,
2013-01-30 05:45:00,68.4,60.0,29.91,SW,215,8.7,9.2,75,0.00,,---,0.00,VWS V14.01,2013-01-30 10:45:00,
2013-01-30 05:50:00,68.4,60.0,29.91,South,190,7.6,7.6,75,0.00,,---,0.00,VWS V14.01,2013-01-30 10:50:00,
2013-01-30 05:55:00,68.4,60.0,29.91,SSW,192,5.8,5.8,75,0.00,,---,0.00,VWS V14.01,2013-01-30 10:55:00,
2013-01-30 06:00:00,68.4,60.0,29.91,SSW,209,5.8,8.7,75,0.00,,---,0.00,VWS V14.01,2013-01-30 11:00:00,
2013-01-30 06:05:00,68.4,60.4,29.91,South,180,8.1,11.0,76,0.00,,---,0.00,VWS V14.01,2013-01-30 11:05:00,
2013-01-30 06:10:00,68.4,60.4,29.91,South,189,5.8,8.1,76,0.00,,---,0.00,VWS V14.01,2013-01-30 11:10:00,
2013-01-30 06:15:00,68.2,60.6,29.91,South,177,4.9,5.8,77,0.00,,---,0.00,VWS V14.01,2013-01-30 11:15:00,
2013-01-30 06:20:00,68.0,60.8,29.91,South,183,3.6,6.3,78,0.00,,---,0.00,VWS V14.01,2013-01-30 11:20:00,
2013-01-30 06:25:00,68.0,61.5,29.91,SSW,197,8.7,8.7,80,0.00,,---,0.00,VWS V14.01,2013-01-30 11:25:00,
2013-01-30 06:30:00,68.0,61.5,29.91,South,175,5.4,5.8,80,0.00,,---,0.00,VWS V14.01,2013-01-30 11:30:00,
2013-01-30 06:35:00,68.0,61.5,29.91,South,186,7.6,7.6,80,0.00,,---,0.00,VWS V14.01,2013-01-30 11:35:00,
2013-01-30 06:40:00,68.0,61.2,29.91,South,173,8.1,8.1,79,0.00,,---,0.00,VWS V14.01,2013-01-30 11:40:00,
2013-01-30 06:45:00,68.0,61.2,29.91,SSW,197,5.8,8.3,79,0.00,,---,0.00,VWS V14.01,2013-01-30 11:45:00,
2013-01-30 06:50:00,68.0,61.5,29.91,South,179,5.4,8.3,80,0.00,,---,0.00,VWS V14.01,2013-01-30 11:50:00,
2013-01-30 06:55:00,68.0,61.5,29.91,SSW,206,4.0,8.1,80,0.00,,---,0.00,VWS V14.01,2013-01-30 11:55:00,
2013-01-30 07:00:00,67.8,61.7,29.91,SSW,196,7.2,7.2,81,0.00,,---,0.00,VWS V14.01,2013-01-30 12:00:00,
2013-01-30 07:05:00,67.8,61.7,29.91,SSW,210,10.1,10.1,81,0.00,,---,0.00,VWS V14.01,2013-01-30 12:05:00,
2013-01-30 07:10:00,67.8,61.7,29.91,SSE,162,4.0,7.6,81,0.00,,---,0.00,VWS V14.01,2013-01-30 12:10:00,
2013-01-30 07:15:00,67.6,61.9,29.91,SSE,162,3.1,10.5,82,0.00,,---,0.00,VWS V14.01,2013-01-30 12:15:00,
2013-01-30 07:20:00,67.6,61.9,29.91,South,185,7.6,7.6,82,0.00,,---,0.00,VWS V14.01,2013-01-30 12:20:00,
2013-01-30 07:25:00,67.6,62.3,29.91,SSE,162,5.8,8.1,83,0.00,,---,0.00,VWS V14.01,2013-01-30 12:25:00,
2013-01-30 07:30:00,67.6,61.9,29.91,South,172,4.9,4.9,82,0.00,,---,0.00,VWS V14.01,2013-01-30 12:30:00,
2013-01-30 07:35:00,67.6,61.9,29.91,SSE,147,8.1,11.9,82,0.00,,---,0.00,VWS V14.01,2013-01-30 12:35:00,
2013-01-30 07:40:00,67.8,61.7,29.91,South,189,8.7,11.0,81,0.00,,---,0.00,VWS V14.01,2013-01-30 12:40:00,
2013-01-30 07:45:00,67.8,61.7,29.91,SSE,159,4.9,7.6,81,0.00,,---,0.00,VWS V14.01,2013-01-30 12:45:00,
2013-01-30 07:50:00,67.8,61.7,29.91,South,175,9.6,9.6,81,0.00,,---,0.00,VWS V14.01,2013-01-30 12:50:00,
2013-01-30 07:55:00,68.0,61.5,29.91,South,187,8.7,8.7,80,0.00,,---,0.00,VWS V14.01,2013-01-30 12:55:00,
2013-01-30 08:00:00,68.0,60.8,29.91,South,185,5.8,9.2,78,0.00,,---,0.00,VWS V14.01,2013-01-30 13:00:00,
2013-01-30 08:05:00,68.2,60.6,29.91,SSW,194,6.3,6.7,77,0.00,,---,0.00,VWS V14.01,2013-01-30 13:05:00,
2013-01-30 08:10:00,68.4,60.4,29.91,South,184,7.6,9.2,76,0.00,,---,0.00,VWS V14.01,2013-01-30 13:10:00,
2013-01-30 08:15:00,68.5,60.1,29.91,SSW,203,10.5,10.5,75,0.00,,---,0.00,VWS V14.01,2013-01-30 13:15:00,
2013-01-30 08:20:00,68.5,59.7,29.91,SSE,161,5.4,8.3,74,0.00,,---,0.00,VWS V14.01,2013-01-30 13:20:00,
2013-01-30 08:25:00,68.7,59.9,29.91,ESE,123,6.3,8.7,74,0.00,,---,0.00,VWS V14.01,2013-01-30 13:25:00,
2013-01-30 08:30:00,68.9,59.3,29.91,South,170,8.3,10.1,71,0.00,,---,0.00,VWS V14.01,2013-01-30 13:30:00,
2013-01-30 08:35:00,69.3,59.2,29.91,SSE,161,8.1,11.0,70,0.00,,---,0.00,VWS V14.01,2013-01-30 13:35:00,
2013-01-30 08:40:00,69.6,58.7,29.91,SSW,193,6.3,8.1,68,0.00,,---,0.00,VWS V14.01,2013-01-30 13:40:00,
2013-01-30 08:45:00,70.3,57.2,29.91,SSE,168,5.8,10.1,63,0.00,,---,0.00,VWS V14.01,2013-01-30 13:45:00,
2013-01-30 08:50:00,71.6,55.4,29.91,South,187,8.1,8.1,57,0.00,,---,0.00,VWS V14.01,2013-01-30 13:50:00,
2013-01-30 08:55:00,72.3,55.1,29.91,SSW,197,5.4,5.4,55,0.00,,---,0.00,VWS V14.01,2013-01-30 13:55:00,
2013-01-30 09:00:00,72.9,53.9,29.88,South,177,8.1,8.1,51,0.00,,---,0.00,VWS V14.01,2013-01-30 14:00:00,
2013-01-30 09:05:00,72.9,54.5,29.88,SSW,194,8.1,9.6,52,0.00,,---,0.00,VWS V14.01,2013-01-30 14:05:00,
2013-01-30 09:10:00,73.0,54.1,29.88,South,173,8.1,10.1,51,0.00,,---,0.00,VWS V14.01,2013-01-30 14:10:00,
2013-01-30 09:15:00,73.4,53.9,29.88,SSE,163,5.8,7.6,50,0.00,,---,0.00,VWS V14.01,2013-01-30 14:15:00,
2013-01-30 09:20:00,73.6,53.5,29.88,SSE,162,6.3,12.8,49,0.00,,---,0.00,VWS V14.01,2013-01-30 14:20:00,
2013-01-30 09:25:00,73.9,53.2,29.88,SSE,155,6.3,9.6,48,0.00,,---,0.00,VWS V14.01,2013-01-30 14:25:00,
2013-01-30 09:30:00,73.4,53.3,29.88,South,176,12.3,12.3,49,0.00,,---,0.00,VWS V14.01,2013-01-30 14:30:00,
2013-01-30 09:35:00,72.7,53.8,29.88,South,185,11.0,13.2,51,0.00,,---,0.00,VWS V14.01,2013-01-30 14:35:00,
2013-01-30 09:40:00,72.7,53.8,29.88,SE,144,7.6,10.5,51,0.00,,---,0.00,VWS V14.01,2013-01-30 14:40:00,
2013-01-30 09:45:00,72.7,53.8,29.88,SSW,206,8.3,8.3,51,0.00,,---,0.00,VWS V14.01,2013-01-30 14:45:00,
2013-01-30 09:50:00,73.2,53.7,29.88,South,170,6.3,8.1,50,0.00,,---,0.00,VWS V14.01,2013-01-30 14:50:00,
2013-01-30 09:55:00,73.4,53.3,29.88,South,173,4.0,5.8,49,0.00,,---,0.00,VWS V14.01,2013-01-30 14:55:00,
2013-01-30 10:00:00,73.4,52.7,29.88,SSW,192,5.8,11.4,48,0.00,,---,0.00,VWS V14.01,2013-01-30 15:00:00,
2013-01-30 10:05:00,74.1,52.2,29.88,South,184,13.2,13.2,46,0.00,,---,0.00,VWS V14.01,2013-01-30 15:05:00,
2013-01-30 10:10:00,73.4,52.7,29.88,SSE,167,7.6,11.0,48,0.00,,---,0.00,VWS V14.01,2013-01-30 15:10:00,
2013-01-30 10:15:00,73.2,53.1,29.88,South,187,8.1,8.3,49,0.00,,---,0.00,VWS V14.01,2013-01-30 15:15:00,
2013-01-30 10:20:00,73.2,52.5,29.88,SSW,192,10.5,10.5,48,0.00,,---,0.00,VWS V14.01,2013-01-30 15:20:00,
2013-01-30 10:25:00,73.6,52.3,29.88,SSW,192,10.1,10.5,47,0.00,,---,0.00,VWS V14.01,2013-01-30 15:25:00,
2013-01-30 10:30:00,73.8,51.8,29.88,SSE,149,12.3,12.3,46,0.00,,---,0.00,VWS V14.01,2013-01-30 15:30:00,
2013-01-30 10:35:00,73.8,51.8,29.88,SE,134,8.1,12.8,46,0.00,,---,0.00,VWS V14.01,2013-01-30 15:35:00,
2013-01-30 10:40:00,73.9,51.4,29.88,SE,140,8.7,10.1,45,0.00,,---,0.00,VWS V14.01,2013-01-30 15:40:00,
2013-01-30 10:45:00,74.3,51.1,29.88,SSW,197,8.3,10.5,44,0.00,,---,0.00,VWS V14.01,2013-01-30 15:45:00,
2013-01-30 10:50:00,74.5,51.2,29.88,SSW,193,10.5,15.0,44,0.00,,---,0.00,VWS V14.01,2013-01-30 15:50:00,
2013-01-30 10:55:00,74.5,50.6,29.88,South,182,14.5,14.5,43,0.00,,---,0.00,VWS V14.01,2013-01-30 15:55:00,
2013-01-30 11:00:00,75.0,51.1,29.88,SSE,147,10.1,12.3,43,0.00,,---,0.00,VWS V14.01,2013-01-30 16:00:00,
2013-01-30 11:05:00,75.9,50.5,29.88,South,178,10.5,10.5,41,0.00,,---,0.00,VWS V14.01,2013-01-30 16:05:00,
2013-01-30 11:10:00,77.0,49.3,29.88,SE,133,8.1,8.1,38,0.00,,---,0.00,VWS V14.01,2013-01-30 16:10:00,
2013-01-30 11:15:00,79.3,48.2,29.85,South,190,5.8,8.7,34,0.00,,---,0.00,VWS V14.01,2013-01-30 16:15:00,
2013-01-30 11:20:00,79.5,48.4,29.85,SSE,167,10.1,10.5,34,0.00,,---,0.00,VWS V14.01,2013-01-30 16:20:00,
2013-01-30 11:25:00,77.9,48.6,29.85,South,183,5.4,6.3,36,0.00,,---,0.00,VWS V14.01,2013-01-30 16:25:00,
2013-01-30 11:30:00,77.7,47.7,29.85,SSE,163,5.8,8.7,35,0.00,,---,0.00,VWS V14.01,2013-01-30 16:30:00,
2013-01-30 11:35:00,77.9,47.8,29.85,South,186,13.6,13.6,35,0.00,,---,0.00,VWS V14.01,2013-01-30 16:35:00,
2013-01-30 11:40:00,77.9,47.8,29.85,South,191,13.6,13.6,35,0.00,,---,0.00,VWS V14.01,2013-01-30 16:40:00,
2013-01-30 11:45:00,77.5,47.5,29.85,South,191,9.6,12.8,35,0.00,,---,0.00,VWS V14.01,2013-01-30 16:45:00,
2013-01-30 11:50:00,77.7,47.7,29.85,South,180,12.8,13.6,35,0.00,,---,0.00,VWS V14.01,2013-01-30 16:50:00,
2013-01-30 11:54:00,78.1,47.2,29.85,SW,215,13.2,13.2,34,0.00,,---,0.00,VWS V14.01,2013-01-30 16:54:00,
2013-01-30 11:59:00,77.9,47.8,29.83,South,178,5.8,12.8,35,0.00,,---,0.00,VWS V14.01,2013-01-30 16:59:00,
2013-01-30 12:04:00,78.1,48.0,29.83,SSE,160,8.3,8.3,35,0.00,,---,0.00,VWS V14.01,2013-01-30 17:04:00,
2013-01-30 12:09:00,78.8,46.9,29.83,South,170,8.1,10.1,33,0.00,,---,0.00,VWS V14.01,2013-01-30 17:09:00,
2013-01-30 12:14:00,78.8,47.8,29.83,South,171,6.3,11.4,34,0.00,,---,0.00,VWS V14.01,2013-01-30 17:14:00,
2013-01-30 12:19:00,78.8,47.8,29.83,South,172,7.6,8.7,34,0.00,,---,0.00,VWS V14.01,2013-01-30 17:19:00,
2013-01-30 12:24:00,79.2,47.2,29.83,SSW,202,2.7,13.6,33,0.00,,---,0.00,VWS V14.01,2013-01-30 17:24:00,
2013-01-30 12:29:00,79.9,47.9,29.83,SSE,153,4.0,8.7,33,0.00,,---,0.00,VWS V14.01,2013-01-30 17:29:00,
2013-01-30 12:35:00,80.2,48.2,29.83,South,190,8.3,10.1,33,0.00,,---,0.00,VWS V14.01,2013-01-30 17:35:00,
2013-01-30 12:39:00,81.1,48.1,29.83,SSW,202,17.0,17.0,31,0.00,,---,0.00,VWS V14.01,2013-01-30 17:39:00,
2013-01-30 12:45:00,81.9,47.8,29.83,South,183,10.5,11.0,30,0.00,,---,0.00,VWS V14.01,2013-01-30 17:45:00,
2013-01-30 12:50:00,83.5,47.3,29.83,South,175,3.6,8.3,28,0.00,,---,0.00,VWS V14.01,2013-01-30 17:50:00,
2013-01-30 12:55:00,84.7,45.3,29.83,South,180,15.0,15.0,25,0.00,,---,0.00,VWS V14.01,2013-01-30 17:55:00,
2013-01-30 13:00:00,84.4,46.0,29.80,SSE,154,8.7,11.0,26,0.00,,---,0.00,VWS V14.01,2013-01-30 18:00:00,
2013-01-30 13:05:00,84.2,44.8,29.80,SSW,196,10.5,11.0,25,0.00,,---,0.00,VWS V14.01,2013-01-30 18:05:00,
2013-01-30 13:10:00,84.9,44.3,29.80,South,181,5.8,8.7,24,0.00,,---,0.00,VWS V14.01,2013-01-30 18:10:00,
2013-01-30 13:15:00,85.1,44.5,29.80,SSW,209,5.8,12.8,24,0.00,,---,0.00,VWS V14.01,2013-01-30 18:15:00,
2013-01-30 13:20:00,85.1,45.6,29.80,South,191,8.7,11.0,25,0.00,,---,0.00,VWS V14.01,2013-01-30 18:20:00,
2013-01-30 13:25:00,85.6,43.7,29.80,South,173,12.3,12.3,23,0.00,,---,0.00,VWS V14.01,2013-01-30 18:25:00,
2013-01-30 13:30:00,85.3,44.6,29.80,South,189,6.3,6.3,24,0.00,,---,0.00,VWS V14.01,2013-01-30 18:30:00,
2013-01-30 13:35:00,82.9,45.8,29.80,SSW,211,5.8,6.3,27,0.00,,---,0.00,VWS V14.01,2013-01-30 18:35:00,
2013-01-30 13:40:00,82.2,46.2,29.80,SSE,157,15.4,15.4,28,0.00,,---,0.00,VWS V14.01,2013-01-30 18:40:00,
2013-01-30 13:45:00,81.9,47.8,29.80,South,171,6.3,6.3,30,0.00,,---,0.00,VWS V14.01,2013-01-30 18:45:00,
2013-01-30 13:50:00,82.4,48.3,29.80,SSE,157,4.0,6.3,30,0.00,,---,0.00,VWS V14.01,2013-01-30 18:50:00,
2013-01-30 13:55:00,82.8,44.7,29.80,SW,235,10.1,12.8,26,0.00,,---,0.00,VWS V14.01,2013-01-30 18:55:00,
2013-01-30 14:00:00,82.4,44.4,29.77,South,171,6.3,7.2,26,0.00,,---,0.00,VWS V14.01,2013-01-30 19:00:00,
2013-01-30 14:05:00,82.2,45.2,29.77,South,187,12.8,12.8,27,0.00,,---,0.00,VWS V14.01,2013-01-30 19:05:00,
2013-01-30 14:10:00,81.9,45.9,29.77,SSE,166,11.0,11.0,28,0.00,,---,0.00,VWS V14.01,2013-01-30 19:10:00,
2013-01-30 14:15:00,82.0,46.1,29.77,SSW,200,10.5,10.5,28,0.00,,---,0.00,VWS V14.01,2013-01-30 19:15:00,
2013-01-30 14:20:00,82.0,47.0,29.77,SSW,205,11.4,11.4,29,0.00,,---,0.00,VWS V14.01,2013-01-30 19:20:00,
2013-01-30 14:25:00,82.0,46.1,29.77,South,181,5.8,8.7,28,0.00,,---,0.00,VWS V14.01,2013-01-30 19:25:00,
2013-01-30 14:30:00,81.7,46.7,29.77,South,183,3.6,5.8,29,0.00,,---,0.00,VWS V14.01,2013-01-30 19:30:00,
2013-01-30 14:35:00,82.0,47.0,29.77,SSE,162,8.1,8.1,29,0.00,,---,0.00,VWS V14.01,2013-01-30 19:35:00,
2013-01-30 14:40:00,82.4,46.4,29.77,South,184,6.3,6.3,28,0.00,,---,0.00,VWS V14.01,2013-01-30 19:40:00,
2013-01-30 14:45:00,82.4,46.4,29.74,SSE,152,11.0,11.0,28,0.00,,---,0.00,VWS V14.01,2013-01-30 19:45:00,
2013-01-30 14:50:00,82.2,47.2,29.74,South,170,4.0,4.0,29,0.00,,---,0.00,VWS V14.01,2013-01-30 19:50:00,
2013-01-30 14:55:00,82.4,46.4,29.74,SSW,192,5.8,5.8,28,0.00,,---,0.00,VWS V14.01,2013-01-30 19:55:00,
2013-01-30 15:00:00,82.4,46.4,29.74,SSW,198,8.7,8.7,28,0.00,,---,0.00,VWS V14.01,2013-01-30 20:00:00,
2013-01-30 15:05:00,82.2,46.2,29.74,South,191,8.7,8.7,28,0.00,,---,0.00,VWS V14.01,2013-01-30 20:05:00,
2013-01-30 15:10:00,81.9,46.9,29.74,South,181,6.3,6.3,29,0.00,,---,0.00,VWS V14.01,2013-01-30 20:10:00,
2013-01-30 15:15:00,81.7,47.7,29.74,South,183,8.3,8.3,30,0.00,,---,0.00,VWS V14.01,2013-01-30 20:15:00,
2013-01-30 15:20:00,81.7,47.7,29.74,South,189,10.5,10.5,30,0.00,,---,0.00,VWS V14.01,2013-01-30 20:20:00,
2013-01-30 15:25:00,81.5,47.5,29.74,SSE,165,4.0,4.0,30,0.00,,---,0.00,VWS V14.01,2013-01-30 20:25:00,
2013-01-30 15:30:00,81.5,47.5,29.74,SSW,198,8.1,8.3,30,0.00,,---,0.00,VWS V14.01,2013-01-30 20:30:00,
2013-01-30 15:35:00,81.3,47.3,29.74,SSW,202,8.1,8.3,30,0.00,,---,0.00,VWS V14.01,2013-01-30 20:35:00,
2013-01-30 15:40:00,81.5,47.5,29.74,South,178,11.0,11.0,30,0.00,,---,0.00,VWS V14.01,2013-01-30 20:40:00,
2013-01-30 15:45:00,81.7,47.7,29.74,South,190,8.7,8.7,30,0.00,,---,0.00,VWS V14.01,2013-01-30 20:45:00,
2013-01-30 15:50:00,82.0,47.0,29.74,SSW,207,5.8,8.3,29,0.00,,---,0.00,VWS V14.01,2013-01-30 20:50:00,
2013-01-30 15:55:00,81.9,46.9,29.74,SSE,154,3.6,4.9,29,0.00,,---,0.00,VWS V14.01,2013-01-30 20:55:00,
2013-01-30 16:00:00,81.9,45.9,29.74,South,191,10.5,10.5,28,0.00,,---,0.00,VWS V14.01,2013-01-30 21:00:00,
2013-01-30 16:05:00,81.9,45.9,29.74,South,181,10.1,10.1,28,0.00,,---,0.00,VWS V14.01,2013-01-30 21:05:00,
2013-01-30 16:10:00,81.7,46.7,29.74,South,188,10.5,11.4,29,0.00,,---,0.00,VWS V14.01,2013-01-30 21:10:00,
2013-01-30 16:15:00,81.3,46.4,29.71,SW,226,8.1,8.1,29,0.00,,---,0.00,VWS V14.01,2013-01-30 21:15:00,
2013-01-30 16:20:00,81.1,46.3,29.71,SSW,198,8.1,8.1,29,0.00,,---,0.00,VWS V14.01,2013-01-30 21:20:00,
2013-01-30 16:25:00,81.1,47.2,29.71,South,171,10.1,10.1,30,0.00,,---,0.00,VWS V14.01,2013-01-30 21:25:00,
2013-01-30 16:30:00,81.1,46.3,29.71,SW,225,6.3,8.1,29,0.00,,---,0.00,VWS V14.01,2013-01-30 21:30:00,
2013-01-30 16:35:00,81.0,47.0,29.71,South,176,6.7,8.7,30,0.00,,---,0.00,VWS V14.01,2013-01-30 21:35:00,
2013-01-30 16:40:00,80.8,46.9,29.71,SSW,199,8.1,8.3,30,0.00,,---,0.00,VWS V14.01,2013-01-30 21:40:00,
2013-01-30 16:45:00,80.6,46.7,29.71,SSW,198,3.6,6.3,30,0.00,,---,0.00,VWS V14.01,2013-01-30 21:45:00,
2013-01-30 16:50:00,80.8,46.9,29.71,South,185,10.1,10.1,30,0.00,,---,0.00,VWS V14.01,2013-01-30 21:50:00,
2013-01-30 16:55:00,81.0,45.2,29.71,SSE,165,8.1,10.1,28,0.00,,---,0.00,VWS V14.01,2013-01-30 21:55:00,
2013-01-30 17:00:00,81.1,46.3,29.71,SSW,207,11.0,11.0,29,0.00,,---,0.00,VWS V14.01,2013-01-30 22:00:00,
2013-01-30 17:05:00,81.0,46.1,29.71,South,190,8.7,8.7,29,0.00,,---,0.00,VWS V14.01,2013-01-30 22:05:00,
2013-01-30 17:10:00,80.8,46.9,29.71,South,186,5.8,11.0,30,0.00,,---,0.00,VWS V14.01,2013-01-30 22:10:00,
2013-01-30 17:15:00,80.8,46.9,29.71,SSW,202,6.3,6.3,30,0.00,,---,0.00,VWS V14.01,2013-01-30 22:15:00,
2013-01-30 17:20:00,80.6,46.7,29.71,SSE,159,6.3,10.1,30,0.00,,---,0.00,VWS V14.01,2013-01-30 22:20:00,
2013-01-30 17:25:00,80.4,47.5,29.71,SW,216,7.2,8.3,31,0.00,,---,0.00,VWS V14.01,2013-01-30 22:25:00,
2013-01-30 17:30:00,80.4,47.5,29.71,SSW,192,3.6,4.9,31,0.00,,---,0.00,VWS V14.01,2013-01-30 22:30:00,
2013-01-30 17:35:00,80.4,47.5,29.71,South,179,5.4,5.4,31,0.00,,---,0.00,VWS V14.01,2013-01-30 22:35:00,
2013-01-30 17:40:00,80.2,47.3,29.71,SSW,198,5.8,5.8,31,0.00,,---,0.00,VWS V14.01,2013-01-30 22:40:00,
2013-01-30 17:45:00,80.1,47.2,29.71,South,180,9.6,10.5,31,0.00,,---,0.00,VWS V14.01,2013-01-30 22:45:00,
2013-01-30 17:50:00,79.9,47.0,29.71,South,179,7.6,7.6,31,0.00,,---,0.00,VWS V14.01,2013-01-30 22:50:00,
2013-01-30 17:55:00,79.5,46.7,29.71,SSE,148,5.4,7.2,31,0.00,,---,0.00,VWS V14.01,2013-01-30 22:55:00,
2013-01-30 18:00:00,79.3,46.5,29.71,South,169,7.2,7.6,31,0.00,,---,0.00,VWS V14.01,2013-01-30 23:00:00,
2013-01-30 18:05:00,79.5,46.7,29.71,SSW,195,4.5,4.5,31,0.00,,---,0.00,VWS V14.01,2013-01-30 23:05:00,
2013-01-30 18:10:00,79.3,46.5,29.71,SSW,207,7.6,7.6,31,0.00,,---,0.00,VWS V14.01,2013-01-30 23:10:00,
2013-01-30 18:15:00,79.3,46.5,29.71,South,169,5.8,10.1,31,0.00,,---,0.00,VWS V14.01,2013-01-30 23:15:00,
2013-01-30 18:20:00,79.2,46.4,29.71,South,183,5.4,7.6,31,0.00,,---,0.00,VWS V14.01,2013-01-30 23:20:00,
2013-01-30 18:25:00,79.0,46.2,29.71,South,187,3.1,6.3,31,0.00,,---,0.00,VWS V14.01,2013-01-30 23:25:00,
2013-01-30 18:30:00,78.8,46.1,29.68,South,188,7.6,7.6,31,0.00,,---,0.00,VWS V14.01,2013-01-30 23:30:00,
2013-01-30 18:35:00,78.6,46.8,29.68,South,170,10.1,10.1,33,0.00,,---,0.00,VWS V14.01,2013-01-30 23:35:00,
2013-01-30 18:40:00,78.8,46.1,29.68,SSW,194,4.0,12.3,31,0.00,,---,0.00,VWS V14.01,2013-01-30 23:40:00,
2013-01-30 18:45:00,78.8,46.1,29.68,SSW,203,10.5,10.5,31,0.00,,---,0.00,VWS V14.01,2013-01-30 23:45:00,
2013-01-30 18:50:00,78.8,46.1,29.68,South,170,7.6,7.6,31,0.00,,---,0.00,VWS V14.01,2013-01-30 23:50:00,
2013-01-30 18:55:00,78.6,45.9,29.68,SSW,208,8.1,8.1,31,0.00,,---,0.00,VWS V14.01,2013-01-30 23:55:00,
2013-01-30 19:00:00,78.4,45.8,29.68,SSW,201,8.3,10.1,31,0.00,,---,0.00,VWS V14.01,2013-01-31 00:00:00,
2013-01-30 19:05:00,78.6,45.9,29.68,South,186,5.8,6.3,31,0.00,,---,0.00,VWS V14.01,2013-01-31 00:05:00,
2013-01-30 19:10:00,78.4,45.8,29.68,SSE,162,8.3,8.3,31,0.00,,---,0.00,VWS V14.01,2013-01-31 00:10:00,
2013-01-30 19:15:00,78.4,44.9,29.68,SSE,147,10.5,10.5,30,0.00,,---,0.00,VWS V14.01,2013-01-31 00:15:00,
2013-01-30 19:20:00,78.4,44.9,29.68,SSW,193,13.2,15.0,30,0.00,,---,0.00,VWS V14.01,2013-01-31 00:20:00,
2013-01-30 19:25:00,78.3,43.8,29.68,South,185,6.3,12.3,29,0.00,,---,0.00,VWS V14.01,2013-01-31 00:25:00,
2013-01-30 19:30:00,78.3,43.8,29.68,SSW,201,10.1,12.8,29,0.00,,---,0.00,VWS V14.01,2013-01-31 00:30:00,
2013-01-30 19:35:00,77.9,45.3,29.68,SSW,200,6.3,11.0,31,0.00,,---,0.00,VWS V14.01,2013-01-31 00:35:00,
2013-01-30 19:40:00,77.5,45.0,29.68,SSW,200,8.1,8.1,31,0.00,,---,0.00,VWS V14.01,2013-01-31 00:40:00,
2013-01-30 19:45:00,77.4,44.8,29.68,SSE,163,13.6,13.6,31,0.00,,---,0.00,VWS V14.01,2013-01-31 00:45:00,
2013-01-30 19:50:00,77.2,44.7,29.68,SSW,202,8.3,12.8,31,0.00,,---,0.00,VWS V14.01,2013-01-31 00:50:00,
2013-01-30 19:55:00,77.2,44.7,29.68,South,190,10.5,12.3,31,0.00,,---,0.00,VWS V14.01,2013-01-31 00:55:00,
2013-01-30 20:00:00,77.0,44.5,29.71,SSW,208,6.3,6.3,31,0.00,,---,0.00,VWS V14.01,2013-01-31 01:00:00,
2013-01-30 20:05:00,76.8,45.2,29.71,SSE,166,5.4,8.3,33,0.00,,---,0.00,VWS V14.01,2013-01-31 01:05:00,
2013-01-30 20:10:00,76.8,45.2,29.71,South,172,8.1,8.3,33,0.00,,---,0.00,VWS V14.01,2013-01-31 01:10:00,
2013-01-30 20:15:00,76.8,45.2,29.71,SSW,202,8.3,9.6,33,0.00,,---,0.00,VWS V14.01,2013-01-31 01:15:00,
2013-01-30 20:20:00,77.0,44.5,29.71,SSW,194,12.8,12.8,31,0.00,,---,0.00,VWS V14.01,2013-01-31 01:20:00,
2013-01-30 20:25:00,77.0,45.4,29.71,WSW,243,5.4,5.4,33,0.00,,---,0.00,VWS V14.01,2013-01-31 01:25:00,
2013-01-30 20:30:00,76.8,45.2,29.68,South,180,12.3,13.2,33,0.00,,---,0.00,VWS V14.01,2013-01-31 01:30:00,
2013-01-30 20:35:00,76.8,45.2,29.68,SSW,196,6.3,11.0,33,0.00,,---,0.00,VWS V14.01,2013-01-31 01:35:00,
2013-01-30 20:40:00,76.8,45.2,29.68,South,176,8.7,8.7,33,0.00,,---,0.00,VWS V14.01,2013-01-31 01:40:00,
2013-01-30 20:45:00,76.6,45.0,29.68,South,175,15.0,15.0,33,0.00,,---,0.00,VWS V14.01,2013-01-31 01:45:00,
2013-01-30 20:50:00,76.6,45.9,29.68,South,180,10.5,15.0,34,0.00,,---,0.00,VWS V14.01,2013-01-31 01:50:00,
2013-01-30 20:55:00,76.5,45.7,29.68,South,179,10.1,23.3,34,0.00,,---,0.00,VWS V14.01,2013-01-31 01:55:00,
2013-01-30 21:00:00,76.3,46.4,29.68,WSW,237,11.0,12.8,35,0.00,,---,0.00,VWS V14.01,2013-01-31 02:00:00,
2013-01-30 21:05:00,76.1,46.2,29.68,South,179,8.1,8.3,35,0.00,,---,0.00,VWS V14.01,2013-01-31 02:05:00,
2013-01-30 21:10:00,75.9,46.1,29.68,SSW,196,9.6,10.5,35,0.00,,---,0.00,VWS V14.01,2013-01-31 02:10:00,
2013-01-30 21:15:00,75.7,46.7,29.68,SSE,166,8.3,13.2,36,0.00,,---,0.00,VWS V14.01,2013-01-31 02:15:00,
2013-01-30 21:20:00,75.6,46.5,29.68,South,178,5.8,8.7,36,0.00,,---,0.00,VWS V14.01,2013-01-31 02:20:00,
2013-01-30 21:25:00,75.6,47.3,29.68,SSW,197,3.1,13.2,37,0.00,,---,0.00,VWS V14.01,2013-01-31 02:25:00,
2013-01-30 21:30:00,75.6,47.3,29.71,SSW,197,10.1,10.1,37,0.00,,---,0.00,VWS V14.01,2013-01-31 02:30:00,
2013-01-30 21:35:00,75.2,47.7,29.71,SSW,193,5.8,10.1,38,0.00,,---,0.00,VWS V14.01,2013-01-31 02:35:00,
2013-01-30 21:40:00,75.2,47.7,29.71,South,190,9.6,10.5,38,0.00,,---,0.00,VWS V14.01,2013-01-31 02:40:00,
2013-01-30 21:45:00,75.0,47.6,29.71,SSW,198,6.3,6.3,38,0.00,,---,0.00,VWS V14.01,2013-01-31 02:45:00,
2013-01-30 21:50:00,75.0,48.3,29.71,SSW,203,7.6,11.0,39,0.00,,---,0.00,VWS V14.01,2013-01-31 02:50:00,
2013-01-30 21:55:00,75.0,48.3,29.71,SSW,208,8.3,8.3,39,0.00,,---,0.00,VWS V14.01,2013-01-31 02:55:00,
2013-01-30 22:00:00,75.0,48.3,29.71,SSW,208,5.4,12.8,39,0.00,,---,0.00,VWS V14.01,2013-01-31 03:00:00,
2013-01-30 22:05:00,75.0,48.3,29.71,SSW,212,5.4,7.6,39,0.00,,---,0.00,VWS V14.01,2013-01-31 03:05:00,
2013-01-30 22:10:00,75.0,48.3,29.71,SSW,195,6.3,7.6,39,0.00,,---,0.00,VWS V14.01,2013-01-31 03:10:00,
2013-01-30 22:15:00,75.0,49.0,29.71,South,178,12.3,12.8,40,0.00,,---,0.00,VWS V14.01,2013-01-31 03:15:00,
2013-01-30 22:20:00,75.0,49.0,29.71,SW,232,10.5,10.5,40,0.00,,---,0.00,VWS V14.01,2013-01-31 03:20:00,
2013-01-30 22:25:00,75.0,49.0,29.71,SSE,148,10.5,11.0,40,0.00,,---,0.00,VWS V14.01,2013-01-31 03:25:00,
2013-01-30 22:30:00,75.0,49.7,29.71,West,277,11.0,14.1,41,0.00,,---,0.00,VWS V14.01,2013-01-31 03:30:00,
2013-01-30 22:35:00,74.8,49.5,29.71,South,181,5.8,17.0,41,0.00,,---,0.00,VWS V14.01,2013-01-31 03:35:00,
2013-01-30 22:40:00,74.8,49.5,29.71,SSW,211,10.5,10.5,41,0.00,,---,0.00,VWS V14.01,2013-01-31 03:40:00,
2013-01-30 22:45:00,74.8,49.5,29.71,South,170,7.6,14.1,41,0.00,,---,0.00,VWS V14.01,2013-01-31 03:45:00,
2013-01-30 22:50:00,74.8,50.2,29.71,SW,230,5.8,13.2,42,0.00,,---,0.00,VWS V14.01,2013-01-31 03:50:00,
2013-01-30 22:55:00,74.7,50.1,29.71,SSW,197,11.9,11.9,42,0.00,,---,0.00,VWS V14.01,2013-01-31 03:55:00,
2013-01-30 23:00:00,74.5,50.6,29.68,South,191,6.3,10.1,43,0.00,,---,0.00,VWS V14.01,2013-01-31 04:00:00,
2013-01-30 23:05:00,74.5,50.6,29.68,SSW,211,13.2,19.2,43,0.00,,---,0.00,VWS V14.01,2013-01-31 04:05:00,
2013-01-30 23:10:00,74.7,50.7,29.68,SSW,211,12.3,12.3,43,0.00,,---,0.00,VWS V14.01,2013-01-31 04:10:00,
2013-01-30 23:15:00,73.6,46.3,29.74,WSW,257,17.9,23.3,38,0.00,,---,0.00,VWS V14.01,2013-01-31 04:15:00,
2013-01-30 23:20:00,66.7,49.9,29.74,NW,316,6.3,12.8,55,0.00,,---,0.00,VWS V14.01,2013-01-31 04:20:00,
2013-01-30 23:25:00,62.1,52.7,29.74,NNW,328,8.1,15.4,71,0.00,,---,0.00,VWS V14.01,2013-01-31 04:25:00,
2013-01-30 23:30:00,60.4,53.8,29.77,WNW,300,4.9,12.8,79,0.00,,---,0.00,VWS V14.01,2013-01-31 04:30:00,
2013-01-30 23:35:00,59.5,54.7,29.77,NW,320,11.0,11.0,84,0.00,,---,0.00,VWS V14.01,2013-01-31 04:35:00,
2013-01-30 23:40:00,58.6,54.5,29.77,WNW,298,12.8,14.5,86,0.00,,---,0.00,VWS V14.01,2013-01-31 04:40:00,
2013-01-30 23:45:00,57.7,53.0,29.80,WNW,283,17.9,17.9,84,0.00,,---,0.00,VWS V14.01,2013-01-31 04:45:00,
2013-01-30 23:50:00,57.4,52.9,29.80,NW,305,12.8,12.8,85,0.00,,---,0.00,VWS V14.01,2013-01-31 04:50:00,
2013-01-30 23:55:00,57.2,53.8,29.80,NW,310,8.3,12.8,88,0.00,,---,0.00,VWS V14.01,2013-01-31 04:55:00,